Weather History for KPIA - July, 2014

Change the Weather History Date:

Thursday, July 17, 2014

  Actual Average Record
Temperature  
Mean Temperature 69 °F 76 °F  
Max Temperature 80 °F 86 °F 106 °F (1887)
Min Temperature 57 °F 66 °F 49 °F (1911)
Degree Days  
Heating Degree Days 0 0  
Month to date heating degree days 2 0  
Since 1 June heating degree days 2 18  
Since 1 July heating degree days 2 0  
Cooling Degree Days 4 11  
Month to date cooling degree days 124 185  
Year to date cooling degree days 574 488  
Since 1 June cooling degree days 416 407  
Growing Degree Days 18 (Base 50)    
Moisture  
Dew Point 55 °F    
Average Humidity 63    
Maximum Humidity 86    
Minimum Humidity 39    
Precipitation  
Precipitation 0.00 in 0.13 in 4.09 in (1895)
Month to date precipitation 1.15 2.16  
Year to date precipitation 22.80 20.02  
Snow  
Snow 0.00 in 0.00 in 0.00 in ()
Month to date snowfall 0.0 0.0  
Since 1 June snowfall 0.0 0.0  
Since 1 July snowfall 0.0 0.0  
Snow Depth 0.00 in    
Sea Level Pressure  
Sea Level Pressure 30.09 in    
Wind  
Wind Speed 3 mph (SW)    
Max Wind Speed 10 mph    
Max Gust Speed 14 mph    
Visibility 10 miles    
Events      
T = Trace of Precipitation, MM = Missing Value Source: NWS Daily Summary

Daily Weather History Graph

Daily Weather History Graph

Search for Another Location

Airport or City:

Trip Planner

Search our weather history database for the weather conditions in past years. The results will help you decide how hot, cold, wet, or windy it might be!

Date:

Astronomy

Jul. 17, 2014 Rise Set
Actual Time 5:42 AM CDT 8:27 PM CDT
Civil Twilight 5:10 AM CDT 8:59 PM CDT
Nautical Twilight 4:29 AM CDT 9:39 PM CDT
Astronomical Twilight 3:43 AM CDT 10:25 PM CDT
Moon 11:44 PM CDT (7/17) 11:55 AM CDT (7/17)
Length of Visible Light 15h 49m
Length of Day
14h 45m
Waning Gibbous, 65% of the Moon is Illuminated
Jul 17
Waning Gibbous
Jul 18
Last Quarter
Jul 26
New
Aug 3
First Quarter
Aug 10
Full

Hourly Weather History & Observations

Time (CDT) Temp. Heat Index Dew Point Humidity Pressure Visibility Wind Dir Wind Speed Gust Speed Precip Events Conditions
12:54 AM 60.1 °F - 54.0 °F 80% 30.05 in 10.0 mi Calm Calm - N/A   Clear
1:54 AM 59.0 °F - 54.0 °F 83% 30.05 in 10.0 mi Calm Calm - N/A   Clear
2:54 AM 57.9 °F - 53.1 °F 84% 30.05 in 10.0 mi Calm Calm - N/A   Clear
3:54 AM 57.9 °F - 53.1 °F 84% 30.06 in 10.0 mi Calm Calm - N/A   Clear
4:54 AM 57.0 °F - 53.1 °F 87% 30.07 in 10.0 mi SSW 3.5 mph - N/A   Clear
5:54 AM 57.9 °F - 53.1 °F 84% 30.08 in 10.0 mi Calm Calm - N/A   Clear
6:54 AM 60.1 °F - 55.9 °F 86% 30.10 in 10.0 mi Calm Calm - N/A   Clear
7:54 AM 64.0 °F - 55.0 °F 73% 30.11 in 10.0 mi West 3.5 mph - N/A   Clear
8:54 AM 68.0 °F - 57.9 °F 70% 30.11 in 10.0 mi SSW 4.6 mph - N/A   Clear
9:54 AM 71.1 °F - 57.9 °F 63% 30.11 in 10.0 mi Variable 4.6 mph - N/A   Clear
10:54 AM 73.9 °F - 57.0 °F 55% 30.11 in 10.0 mi South 5.8 mph - N/A   Clear
11:54 AM 75.9 °F - 55.9 °F 50% 30.11 in 10.0 mi West 9.2 mph - N/A   Partly Cloudy
12:54 PM 75.0 °F - 55.0 °F 50% 30.10 in 10.0 mi SW 3.5 mph - N/A   Scattered Clouds
1:54 PM 77.0 °F - 54.0 °F 45% 30.09 in 10.0 mi West 5.8 mph - N/A   Partly Cloudy
2:54 PM 79.0 °F - 54.0 °F 42% 30.09 in 10.0 mi West 6.9 mph - N/A   Clear
3:54 PM 80.1 °F 80.0 °F 54.0 °F 40% 30.08 in 10.0 mi SSW 5.8 mph - N/A   Clear
4:54 PM 79.0 °F - 54.0 °F 42% 30.08 in 10.0 mi WSW 6.9 mph - N/A   Partly Cloudy
5:54 PM 79.0 °F - 54.0 °F 42% 30.07 in 10.0 mi West 3.5 mph - N/A   Mostly Cloudy
6:54 PM 78.1 °F - 53.1 °F 42% 30.08 in 10.0 mi WSW 3.5 mph - N/A   Overcast
7:54 PM 75.0 °F - 55.0 °F 50% 30.08 in 10.0 mi SW 5.8 mph - N/A   Mostly Cloudy
8:54 PM 72.0 °F - 55.9 °F 57% 30.09 in 10.0 mi Calm Calm - N/A   Partly Cloudy
9:54 PM 70.0 °F - 57.0 °F 63% 30.10 in 10.0 mi South 4.6 mph - N/A   Mostly Cloudy
10:54 PM 69.1 °F - 57.0 °F 65% 30.10 in 10.0 mi SSW 3.5 mph - N/A   Mostly Cloudy
11:54 PM 69.1 °F - 57.0 °F 65% 30.11 in 10.0 mi Calm Calm - N/A   Scattered Clouds